Weather History for New York, NY

Change the Weather History Date:

Tuesday, July 30, 2013

  Actual Average Record
Temperature  
Mean Temperature 76 °F 78 °F  
Max Temperature 82 °F 85 °F 99 °F (1988)
Min Temperature 70 °F 70 °F 61 °F (1956)
Degree Days  
Heating Degree Days 0 0  
Month to date heating degree days 0 0  
Since 1 June heating degree days 4 16  
Since 1 July heating degree days 0 0  
Cooling Degree Days 11 13  
Month to date cooling degree days 497 375  
Year to date cooling degree days 866 672  
Since 1 June cooling degree days 778 606  
Growing Degree Days 26 (Base 50)    
Moisture  
Dew Point 54 °F    
Average Humidity 49    
Maximum Humidity 61    
Minimum Humidity 36    
Precipitation  
Precipitation 0.00 in 0.15 in 3.46 in (1960)
Month to date precipitation 2.80 4.33  
Year to date precipitation 25.37 25.96  
Snow  
Snow 0.00 in 0.00 in - ()
Month to date snowfall 0.0 0.0  
Since 1 July snowfall 0.0 0.0  
Snow Depth 0.00 in    
Sea Level Pressure  
Sea Level Pressure 30.12 in    
Wind  
Wind Speed 9 mph (NW)    
Max Wind Speed 16 mph    
Max Gust Speed 21 mph    
Visibility 10 miles    
Events      
T = Trace of Precipitation, MM = Missing Value Source: NWS Daily Summary

Daily Weather History Graph

Daily Weather History Graph

Search for Another Location

Airport:

Trip Planner

Search our weather history database for the weather conditions in past years. The results will help you decide how hot, cold, wet, or windy it might be!

Date:

Astronomy

Jul. 30, 2013 Rise Set
Actual Time 5:50 AM EDT 8:12 PM EDT
Civil Twilight 5:19 AM EDT 8:43 PM EDT
Nautical Twilight 4:41 AM EDT 9:21 PM EDT
Astronomical Twilight 3:58 AM EDT 10:04 PM EDT
Moon 12:07 AM EDT (7/30) 2:30 PM EDT (7/30)
Length of Visible Light 15h 24m
Length of Day
14h 22m
Last Quarter, 41% of the Moon is Illuminated
Jul 30
Last Quarter
Aug 6
New
Aug 14
First Quarter
Aug 20
Full
Aug 28
Last Quarter

Hourly Weather History & Observations

Time (EDT) Temp. Heat Index Dew Point Humidity Pressure Visibility Wind Dir Wind Speed Gust Speed Precip Events Conditions
12:51 AM 73.9 °F - 53.1 °F 48% 30.10 in 10.0 mi WNW 9.2 mph - N/A   Clear
1:51 AM 73.0 °F - 53.1 °F 49% 30.10 in 10.0 mi NW 13.8 mph - N/A   Clear
2:51 AM 72.0 °F - 55.0 °F 55% 30.10 in 10.0 mi NW 10.4 mph - N/A   Clear
3:51 AM 71.1 °F - 54.0 °F 55% 30.10 in 10.0 mi NNW 5.8 mph - N/A   Clear
4:51 AM 70.0 °F - 55.0 °F 59% 30.12 in 10.0 mi NW 4.6 mph - N/A   Clear
5:51 AM 70.0 °F - 54.0 °F 57% 30.13 in 10.0 mi NW 5.8 mph - N/A   Partly Cloudy
6:51 AM 71.1 °F - 55.0 °F 57% 30.15 in 10.0 mi NW 5.8 mph - N/A   Partly Cloudy
7:51 AM 71.1 °F - 54.0 °F 55% 30.16 in 10.0 mi NNW 8.1 mph - N/A   Partly Cloudy
8:51 AM 72.0 °F - 54.0 °F 53% 30.17 in 10.0 mi WNW 6.9 mph - N/A   Partly Cloudy
9:51 AM 73.9 °F - 53.1 °F 48% 30.16 in 10.0 mi NW 13.8 mph - N/A   Partly Cloudy
10:51 AM 75.9 °F - 54.0 °F 46% 30.16 in 10.0 mi NNW 11.5 mph - N/A   Partly Cloudy
11:51 AM 78.1 °F - 53.1 °F 42% 30.15 in 10.0 mi WNW 11.5 mph 16.1 mph N/A   Scattered Clouds
12:51 PM 79.0 °F - 52.0 °F 39% 30.14 in 10.0 mi WNW 10.4 mph 19.6 mph N/A   Scattered Clouds
1:51 PM 79.0 °F - 54.0 °F 42% 30.12 in 10.0 mi NW 12.7 mph 18.4 mph N/A   Mostly Cloudy
2:51 PM 79.0 °F - 51.1 °F 38% 30.11 in 10.0 mi NW 6.9 mph - N/A   Mostly Cloudy
3:51 PM 81.0 °F 80.4 °F 53.1 °F 38% 30.10 in 10.0 mi NNW 9.2 mph - N/A   Mostly Cloudy
4:51 PM 81.0 °F - 51.1 °F 35% 30.09 in 10.0 mi NW 11.5 mph 18.4 mph N/A   Mostly Cloudy
5:51 PM 81.0 °F 80.5 °F 54.0 °F 39% 30.10 in 10.0 mi WNW 10.4 mph - N/A   Scattered Clouds
6:51 PM 79.0 °F - 53.1 °F 40% 30.11 in 10.0 mi NW 10.4 mph - N/A   Mostly Cloudy
7:51 PM 78.1 °F - 55.0 °F 45% 30.12 in 10.0 mi NW 8.1 mph - N/A   Mostly Cloudy
8:51 PM 77.0 °F - 55.0 °F 47% 30.12 in 10.0 mi NW 10.4 mph - N/A   Scattered Clouds
9:51 PM 75.9 °F - 55.9 °F 50% 30.13 in 10.0 mi NNW 5.8 mph - N/A   Scattered Clouds
10:51 PM 75.9 °F - 55.9 °F 50% 30.13 in 10.0 mi NNW 8.1 mph - N/A   Partly Cloudy
11:51 PM 75.0 °F - 55.9 °F 51% 30.13 in 10.0 mi NNW 6.9 mph - N/A   Clear